Flag for Malaysia Weather past 2 weeks in Kuching, Malaysia

Now
73 °F

Passing clouds.


Feels Like: 70 °F
Forecast: 73 / 86 °F
Wind: 2 mph from West

Location: Kuching Airport

Current Time: Aug 31, 2014 at 5:23:30 AM

Latest Report: Aug 31, 2014 at 5:00 AM


Visibility: N/A

Pressure: 29.83 "Hg

Humidity: 94%

Dew point: 72 °F

Location of KuchingLocation

Historic Weather in Kuching — Graph

°F

Kuching temperature yesterday

Maximum temperature yesterday: 90 °F (at 2:30 PM)
Minimum temperature yesterday: 73 °F (at 1:30 AM)
Average temperature yesterday: 79 °F

Past Weeks' High & Low Weather Summary

 TemperatureHumidityPressure
High93 °F (Aug 23, 4:30 PM)100% (Aug 16, 9:30 AM)29.95 "Hg (Aug 16, 9:30 AM)
Low73 °F (Aug 18, 3:00 AM)52% (Aug 23, 4:00 PM)29.71 "Hg (Aug 22, 4:30 PM)
Average80 °F85%29.83 "Hg
* Reported Aug 16 4:00 AM — Aug 31 4:00 AM, Kuching, Weather by CustomWeather, © 2014

Note: Actual official high and low records may vary slightly from our data, if they occured in-between our weather recording intervals... More about our weather records

Advertising

Kuching weather history for previous 24 hours

 ConditionsComfort  
Time TempWeatherWind HumidityBarometerVisibility
4:00 AM
Aug 31
73 °FPartly cloudy.1 mph94%29.83 "HgN/A
3:30 AM73 °FPassing clouds.2 mph100%29.83 "HgN/A
3:00 AM73 °FPartly cloudy.1 mph94%29.83 "HgN/A
2:30 AM73 °FPassing clouds.1 mph94%29.83 "HgN/A
2:00 AM73 °FPassing clouds.No wind94%29.83 "Hg5 mi
1:30 AM73 °FPassing clouds.No wind94%29.83 "HgN/A
1:00 AM73 °FPassing clouds.No wind94%29.83 "HgN/A
12:30 AM73 °FPassing clouds.1 mph94%29.86 "HgN/A
12:00 AM73 °FPassing clouds.1 mph94%29.86 "HgN/A
11:30 PM
Aug 30
73 °FPassing clouds.3 mph94%29.86 "HgN/A
11:00 PM75 °FPassing clouds.2 mph89%29.86 "HgN/A
10:30 PM75 °FPassing clouds.5 mph89%29.86 "HgN/A
10:00 PM75 °FPartly cloudy.3 mph89%29.86 "HgN/A
9:30 PM75 °FPartly cloudy.6 mph89%29.83 "HgN/A
9:00 PM75 °FLight rain. Partly cloudy.6 mph89%29.83 "HgN/A
8:30 PM75 °FLight rain. Partly cloudy.2 mph89%29.86 "HgN/A
8:00 PM75 °FLight rain. Partly cloudy.3 mph89%29.86 "HgN/A
7:30 PM75 °FLight rain. Partly cloudy.5 mph94%29.83 "HgN/A
7:00 PM75 °FPartly cloudy.6 mph89%29.83 "HgN/A
6:30 PM79 °FLight rain. Broken clouds.9 mph74%29.83 "Hg5 mi
6:00 PM82 °FBroken clouds.12 mph66%29.80 "HgN/A
5:30 PM84 °FBroken clouds.8 mph74%29.77 "HgN/A
5:00 PM86 °FBroken clouds.9 mph70%29.77 "HgN/A
4:30 PM88 °FBroken clouds.10 mph62%29.77 "HgN/A
4:00 PM88 °FBroken clouds.8 mph66%29.77 "HgN/A
3:30 PM90 °FBroken clouds.5 mph59%29.77 "HgN/A
3:00 PM90 °FBroken clouds.6 mph55%29.77 "HgN/A
2:30 PM90 °FPartly sunny.3 mph59%29.77 "HgN/A
2:00 PM88 °FBroken clouds.6 mph66%29.77 "HgN/A
1:30 PM86 °FBroken clouds.7 mph70%29.80 "HgN/A
1:00 PM86 °FBroken clouds.6 mph66%29.80 "HgN/A
12:30 PM86 °FPartly sunny.7 mph70%29.83 "HgN/A
12:00 PM84 °FPartly sunny.8 mph70%29.83 "HgN/A
11:30 AM82 °FPartly sunny.6 mph74%29.83 "HgN/A
11:00 AM82 °FPartly sunny.6 mph74%29.86 "HgN/A
10:30 AM82 °FPartly sunny.7 mph79%29.86 "HgN/A
10:00 AM81 °FPartly sunny.9 mph79%29.86 "HgN/A
9:30 AM79 °FBroken clouds.5 mph84%29.89 "HgN/A
9:00 AM79 °FBroken clouds.3 mph84%29.89 "HgN/A
8:30 AM77 °FBroken clouds.3 mph89%29.89 "HgN/A
8:00 AM75 °FBroken clouds.3 mph94%29.89 "HgN/A
7:30 AM75 °FBroken clouds.3 mph94%29.89 "HgN/A
7:00 AM73 °FBroken clouds.No wind100%29.89 "HgN/A
6:30 AM73 °FPartly cloudy.No wind94%29.89 "HgN/A
6:00 AM73 °FPartly cloudy.No wind94%29.86 "HgN/A
5:30 AM73 °FPartly cloudy.2 mph94%29.86 "HgN/A
5:00 AM73 °FPartly cloudy.3 mph94%29.86 "HgN/A
Weather by CustomWeather, © 2014

See weather overviewHow to use our weather pages